Weather History for Lakeland Region, FL

Change the Weather History Date:

Wednesday, July 24, 2013

  Actual Average Record
Temperature  
Mean Temperature 80 °F -  
Max Temperature 89 °F 89 °F 95 °F (1995)
Min Temperature 71 °F 71 °F 71 °F (2000)
Cooling Degree Days 15    
Growing Degree Days 30 (Base 50)    
Moisture  
Dew Point 72 °F    
Average Humidity 86    
Maximum Humidity 100    
Minimum Humidity 52    
Precipitation  
Precipitation 0.00 in - - ()
Sea Level Pressure  
Sea Level Pressure 29.97 in    
Wind  
Wind Speed 5 mph (SW)    
Max Wind Speed 14 mph    
Max Gust Speed 20 mph    
Visibility 9 miles    
Events      
Averages and records for this station are not official NWS values.
T = Trace of Precipitation, MM = Missing Value Source: NWS Daily Summary

Daily Weather History Graph

Daily Weather History Graph

Search for Another Location

Airport:

Trip Planner

Search our weather history database for the weather conditions in past years. The results will help you decide how hot, cold, wet, or windy it might be!

Date:

Astronomy

Jul. 24, 2013 Rise Set
Actual Time 6:46 AM EDT 8:22 PM EDT
Civil Twilight 6:20 AM EDT 8:48 PM EDT
Nautical Twilight 5:49 AM EDT 9:18 PM EDT
Astronomical Twilight 5:17 AM EDT 9:51 PM EDT
Moon 9:47 PM EDT (7/24) 8:48 AM EDT (7/24)
Length of Visible Light 14h 27m
Length of Day
13h 36m
Waning Gibbous, 95% of the Moon is Illuminated
Jul 24
Waning Gibbous
Jul 29
Last Quarter
Aug 6
New
Aug 14
First Quarter
Aug 20
Full

Hourly Weather History & Observations

Time (EDT) Temp. Heat Index Dew Point Humidity Pressure Visibility Wind Dir Wind Speed Gust Speed Precip Events Conditions
12:15 AM 73.4 °F - 73.4 °F 100% 30.03 in - South 3.5 mph - N/A   Unknown
12:35 AM 73.4 °F - 73.4 °F 100% 30.03 in - SSW 3.5 mph - N/A   Unknown
12:55 AM 73.4 °F - 73.4 °F 100% 30.02 in - SSW 4.6 mph - N/A   Unknown
1:15 AM 73.4 °F - 73.4 °F 100% 30.01 in - SSW 4.6 mph - N/A   Unknown
1:35 AM 73.4 °F - 71.6 °F 94% 30.00 in - SSW 3.5 mph - N/A   Unknown
1:55 AM 73.4 °F - 71.6 °F 94% 29.99 in - SSW 3.5 mph - N/A   Unknown
2:15 AM 73.4 °F - 71.6 °F 94% 29.98 in - South 4.6 mph - N/A   Unknown
2:35 AM 73.4 °F - 71.6 °F 94% 29.97 in - South 4.6 mph - N/A   Unknown
2:55 AM 73.4 °F - 71.6 °F 94% 29.96 in - Calm Calm - N/A   Unknown
3:15 AM 73.4 °F - 71.6 °F 94% 29.96 in - SW 3.5 mph - N/A   Unknown
3:35 AM 73.4 °F - 71.6 °F 94% 29.96 in - SSW 4.6 mph - N/A   Unknown
3:55 AM 73.4 °F - 71.6 °F 94% 29.95 in 7.0 mi SSW 3.5 mph - N/A   Clear
4:15 AM 73.4 °F - 71.6 °F 94% 29.95 in - Calm Calm - N/A   Unknown
4:35 AM 73.4 °F - 71.6 °F 94% 29.95 in - WSW 3.5 mph - N/A   Unknown
4:55 AM 73.4 °F - 71.6 °F 94% 29.95 in 7.0 mi SSW 4.6 mph - N/A   Clear
5:15 AM 73.4 °F - 71.6 °F 94% 29.95 in 7.0 mi SSW 3.5 mph - N/A   Clear
5:35 AM 71.6 °F - 71.6 °F 100% 29.95 in - SSW 4.6 mph - N/A   Unknown
5:55 AM 73.4 °F - 71.6 °F 94% 29.95 in - SW 4.6 mph - N/A   Unknown
5:56 AM 73.4 °F - 73.4 °F 100% 29.95 in 7.0 mi SW 4.6 mph - N/A   Clear
6:15 AM 73.4 °F - 71.6 °F 94% 29.95 in - SSW 4.6 mph - N/A   Unknown
6:35 AM 73.4 °F - 71.6 °F 94% 29.95 in - SW 4.6 mph - N/A   Unknown
6:54 AM 73.4 °F - 73.4 °F 100% 29.96 in 7.0 mi SSW 4.6 mph - N/A   Scattered Clouds
7:50 AM 75.2 °F - 73.4 °F 94% 29.97 in 7.0 mi SW 4.6 mph - N/A   Scattered Clouds
8:50 AM 78.8 °F - 75.2 °F 89% 29.99 in 8.0 mi WSW 4.6 mph - N/A   Scattered Clouds
9:40 AM 82.4 °F 89.5 °F 75.2 °F 79% 30.00 in 10.0 mi WSW 5.8 mph - N/A   Mostly Cloudy
10:50 AM 84.2 °F 90.9 °F 73.4 °F 70% 30.00 in 10.0 mi West 11.5 mph 17.3 mph N/A   Mostly Cloudy
11:54 AM 86.0 °F 93.4 °F 73.4 °F 66% 29.99 in 10.0 mi West 12.7 mph 19.6 mph N/A   Mostly Cloudy
12:52 PM 84.2 °F 90.9 °F 73.4 °F 70% 29.98 in 10.0 mi WSW 11.5 mph - N/A   Mostly Cloudy
1:50 PM 87.8 °F 93.8 °F 71.6 °F 58% 29.97 in 10.0 mi West 12.7 mph - N/A   Overcast
2:50 PM 89.6 °F 94.7 °F 69.8 °F 52% 29.96 in 10.0 mi WNW 13.8 mph - N/A   Overcast
3:50 PM 89.6 °F 94.7 °F 69.8 °F 52% 29.94 in 10.0 mi West 13.8 mph - N/A   Overcast
4:50 PM 87.8 °F 92.6 °F 69.8 °F 55% 29.92 in 10.0 mi West 11.5 mph - N/A   Mostly Cloudy
5:50 PM 87.8 °F 93.8 °F 71.6 °F 58% 29.92 in 10.0 mi West 9.2 mph - N/A   Mostly Cloudy
6:50 PM 82.4 °F 89.5 °F 75.2 °F 79% 29.93 in 10.0 mi West 5.8 mph - N/A   Mostly Cloudy
7:50 PM 80.6 °F 85.4 °F 73.4 °F 79% 29.95 in 10.0 mi West 6.9 mph - N/A   Mostly Cloudy
8:50 PM 80.6 °F 85.4 °F 73.4 °F 79% 29.95 in 10.0 mi West 5.8 mph - N/A   Mostly Cloudy
9:50 PM 78.8 °F - 73.4 °F 83% 29.96 in 10.0 mi SW 3.5 mph - N/A   Mostly Cloudy
10:55 PM 77.0 °F - 73.4 °F 89% 29.95 in 10.0 mi WSW 3.5 mph - N/A   Clear
11:15 PM 77.0 °F - 73.4 °F 89% 29.95 in 10.0 mi SW 3.5 mph - N/A   Clear
11:35 PM 77.0 °F - 73.4 °F 89% 29.95 in 10.0 mi WSW 3.5 mph - N/A   Clear
11:55 PM 77.0 °F - 73.4 °F 89% 29.95 in 10.0 mi WSW 3.5 mph - N/A   Clear